GW4324 Weather Reports


Display with metric or nautical units.
time (UTC)temp
F
wind
direction
speed
MPH
gust
MPH
rain 1hr
in
rain 24hr
in
rain mn
in
humidity
%
barometer
mb
20260507061227 51 306 3.0 7.0 0.00 0.00 0.00 70 1014.6
20260507060724 51 335 2.0 5.0 0.00 0.00 0.00 73 1014.7
20260507060221 51 345 2.0 6.0 0.00 0.00 0.00 74 1014.6
20260507055717 51 330 2.0 3.0 0.00 0.00 0.00 76 1014.7
20260507055213 51 316 2.0 4.0 0.00 0.00 0.00 77 1014.5
20260507054709 51 293 0.0 3.0 0.00 0.00 0.00 78 1014.6
20260507054206 51 306 3.0 5.0 0.00 0.00 0.00 79 1014.6
20260507053704 51 3 1.0 2.0 0.00 0.00 0.00 79 1014.4
20260507053201 51 341 2.0 4.0 0.00 0.00 0.00 77 1014.6
20260507052700 51 343 4.0 5.0 0.00 0.00 0.00 78 1014.6
20260507052155 51 127 1.0 3.0 0.00 0.00 0.00 80 1014.6
20260507051653 52 310 2.0 4.0 0.00 0.00 0.00 79 1014.7
20260507051149 52 173 0.0 4.0 0.00 0.00 0.00 80 1014.5
20260507050647 51 110 1.0 2.0 0.00 0.00 0.00 80 1014.6
20260507050143 51 323 1.0 5.0 0.00 0.00 0.00 81 1014.4
20260507045640 51 110 2.0 5.0 0.00 0.00 0.00 84 1014.5
20260507045137 51 271 1.0 2.0 0.00 0.00 0.00 88 1014.3
20260507044634 52 94 0.0 3.0 0.00 0.00 0.00 86 1014.3
20260507044131 51 202 2.0 3.0 0.00 0.00 0.00 85 1014.4
20260507043627 51 201 2.0 6.0 0.00 0.00 0.00 88 1014.4
20260507043124 51 239 0.0 3.0 0.00 0.00 0.00 90 1014.3
20260507042620 51 140 1.0 2.0 0.00 0.00 0.00 92 1014.1
20260507042115 51 202 1.0 3.0 0.00 0.00 0.00 92 1014.2
20260507041612 51 147 1.0 2.0 0.00 0.00 0.00 93 1014.3
20260507041109 51 189 2.0 3.0 0.00 0.00 0.00 92 1014.2
20260507040606 51 156 2.0 2.0 0.00 0.00 0.00 92 1014.3
20260507035558 50 141 1.0 1.0 0.00 0.33 0.33 93 1014.3
20260507035055 50 121 0.0 1.0 0.00 0.33 0.33 94 1014.1
20260507034551 50 66 0.0 1.0 0.00 0.33 0.33 93 1014.1
20260507034049 50 110 0.0 0.0 0.00 0.33 0.33 93 1014.2
20260507033547 50 96 0.0 2.0 0.00 0.33 0.33 93 1014.3
20260507033044 50 94 1.0 2.0 0.00 0.33 0.33 93 1014.1
20260507032541 50 124 2.0 2.0 0.00 0.33 0.33 92 1014.1
20260507032037 50 67 2.0 3.0 0.00 0.33 0.33 91 1014.0
20260507031534 50 135 0.0 1.0 0.00 0.33 0.33 91 1014.3
20260507031031 50 140 0.0 1.0 0.00 0.33 0.33 89 1014.7
20260507030528 51 89 0.0 1.0 0.00 0.33 0.33 88 1014.1
20260507030026 51 157 0.0 2.0 0.00 0.33 0.33 88 1014.1
20260507025522 51 101 2.0 2.0 0.00 0.33 0.33 87 1013.9
20260507025020 51 103 2.0 2.0 0.00 0.33 0.33 87 1013.9
20260507024518 51 93 1.0 3.0 0.00 0.33 0.33 87 1014.1
20260507024014 51 89 2.0 2.0 0.00 0.33 0.33 86 1014.2
20260507023510 52 81 2.0 3.0 0.00 0.33 0.33 86 1014.1
20260507023008 52 67 3.0 4.0 0.00 0.33 0.33 86 1014.0
20260507022504 52 66 2.0 4.0 0.00 0.33 0.33 86 1014.0
20260507021959 52 56 4.0 6.0 0.00 0.33 0.33 86 1014.2
20260507021455 52 63 4.0 5.0 0.00 0.33 0.33 86 1014.2
20260507020953 52 70 5.0 5.0 0.00 0.33 0.33 86 1014.5
20260507020450 53 51 4.0 4.0 0.00 0.33 0.33 86 1014.7
20260507015946 53 60 5.0 6.0 0.00 0.33 0.33 86 1014.4
20260507015445 53 84 4.0 6.0 0.00 0.33 0.33 86 1014.4
20260507014942 53 71 4.0 8.0 0.00 0.33 0.33 86 1014.7
20260507014438 53 43 3.0 5.0 0.00 0.33 0.33 86 1014.6
20260507013934 53 58 4.0 6.0 0.00 0.33 0.33 86 1014.5
20260507013431 53 83 3.0 5.0 0.00 0.33 0.33 85 1014.6
20260507012929 53 62 5.0 5.0 0.00 0.33 0.33 85 1014.6
20260507012425 53 78 4.0 5.0 0.00 0.33 0.33 85 1014.4
20260507011922 53 19 6.0 9.0 0.00 0.33 0.33 85 1014.6
20260507011420 53 31 7.0 9.0 0.00 0.33 0.33 85 1014.3
20260507010919 53 31 8.0 9.0 0.00 0.33 0.33 84 1014.5
20260507010414 54 336 4.0 6.0 0.00 0.33 0.33 84 1014.5
20260507005912 54 3 4.0 7.0 0.00 0.33 0.33 84 1014.5
20260507005409 54 24 3.0 5.0 0.00 0.33 0.33 86 1014.2
20260507004905 54 11 2.0 4.0 0.00 0.33 0.33 86 1014.1
20260507004402 54 4 2.0 4.0 0.00 0.33 0.33 86 1014.1
20260507003900 54 1 5.0 7.0 0.00 0.33 0.33 85 1013.9
20260507003355 54 29 5.0 5.0 0.00 0.33 0.33 85 1013.7
20260507002850 54 70 4.0 7.0 0.00 0.33 0.33 84 1013.9
20260507002347 54 350 3.0 8.0 0.00 0.33 0.33 83 1013.6
20260507001844 54 46 6.0 9.0 0.00 0.33 0.33 83 1013.4
20260507001340 54 54 4.0 7.0 0.00 0.33 0.33 83 1013.4
20260507000837 54 24 6.0 6.0 0.00 0.33 0.33 83 1013.3
20260507000333 54 14 10.0 10.0 0.00 0.33 0.33 82 1013.1
20260506235829 54 33 5.0 9.0 0.00 0.33 0.33 83 1013.0
20260506235326 55 38 3.0 10.0 0.00 0.33 0.33 83 1012.9
20260506234822 55 354 5.0 9.0 0.00 0.33 0.33 83 1012.7
20260506234320 55 46 6.0 6.0 0.00 0.33 0.33 84 1012.5
20260506233818 55 356 7.0 10.0 0.00 0.33 0.33 83 1012.7
20260506233313 55 331 2.0 8.0 0.00 0.33 0.33 84 1012.7
20260506232810 55 13 4.0 13.0 0.00 0.33 0.33 83 1012.6
20260506232306 55 357 6.0 14.0 0.00 0.33 0.33 83 1012.6
20260506231803 55 335 4.0 11.0 0.00 0.33 0.33 84 1012.5
20260506231301 55 356 4.0 14.0 0.00 0.33 0.33 83 1012.3
20260506230758 55 329 10.0 11.0 0.00 0.33 0.33 84 1012.3
20260506230255 56 23 6.0 12.0 0.00 0.33 0.33 83 1012.1
20260506225751 56 346 11.0 12.0 0.00 0.33 0.33 83 1012.0
20260506225248 56 320 9.0 15.0 0.00 0.33 0.33 83 1012.0
20260506224744 56 356 7.0 13.0 0.00 0.33 0.33 84 1012.0
20260506224242 57 348 8.0 12.0 0.00 0.33 0.33 83 1011.7
20260506223738 57 343 7.0 11.0 0.00 0.33 0.33 84 1011.7
20260506223233 57 17 8.0 13.0 0.00 0.33 0.33 83 1011.6
20260506222731 57 0 9.0 16.0 0.00 0.33 0.33 84 1011.6
20260506222226 57 1 6.0 15.0 0.00 0.33 0.33 84 1011.3
20260506221724 58 12 9.0 11.0 0.00 0.33 0.33 85 1011.3
20260506221222 58 297 7.0 13.0 0.00 0.33 0.33 85 1011.3
20260506220719 59 43 5.0 12.0 0.00 0.33 0.33 86 1011.1
20260506220214 59 14 6.0 11.0 0.00 0.33 0.33 86 1010.8
20260506215711 59 349 6.0 9.0 0.00 0.33 0.33 86 1010.9
20260506215206 59 0 7.0 16.0 0.00 0.33 0.33 85 1010.8
20260506214703 59 8 7.0 11.0 0.00 0.33 0.33 85 1010.5
20260506214200 61 64 9.0 13.0 0.00 0.33 0.33 84 1010.3
20260506213659 64 353 1.0 2.0 0.00 0.33 0.33 84 1010.2
20260506213156 64 73 1.0 4.0 0.00 0.33 0.33 84 1010.0
20260506212653 64 307 0.0 3.0 0.00 0.33 0.33 84 1009.9
20260506212148 64 198 2.0 4.0 0.00 0.33 0.33 84 1009.9
20260506211643 64 231 4.0 6.0 0.00 0.33 0.33 84 1009.9
20260506211140 64 180 1.0 4.0 0.00 0.33 0.33 84 1009.7
20260506210637 65 229 2.0 5.0 0.00 0.33 0.33 83 1009.7
20260506210134 65 211 2.0 4.0 0.00 0.33 0.33 83 1009.6
20260506205631 64 230 2.0 6.0 0.00 0.33 0.33 84 1009.4
20260506205125 65 221 4.0 10.0 0.00 0.33 0.33 84 1009.4
20260506204624 65 199 5.0 8.0 0.00 0.33 0.33 85 1009.3
20260506204121 65 207 2.0 8.0 0.00 0.33 0.33 85 1009.4
20260506203619 65 222 3.0 8.0 0.00 0.33 0.33 85 1009.4
20260506203115 65 231 1.0 5.0 0.00 0.33 0.33 86 1009.2
20260506202613 65 204 3.0 11.0 0.00 0.33 0.33 86 1009.3
20260506202109 65 221 6.0 9.0 0.00 0.33 0.33 85 1009.3
20260506201607 65 215 3.0 8.0 0.00 0.33 0.33 85 1008.9
20260506201103 65 255 2.0 11.0 0.00 0.33 0.33 85 1009.2
20260506200559 65 211 3.0 9.0 0.00 0.33 0.33 88 1009.1
20260506200056 65 274 3.0 5.0 0.00 0.33 0.33 88 1009.1
20260506195553 64 219 4.0 8.0 0.00 0.33 0.33 91 1009.2
20260506195049 64 212 4.0 8.0 0.00 0.33 0.33 91 1009.2
20260506194547 64 211 5.0 8.0 0.00 0.33 0.33 88 1009.3
20260506194043 65 198 7.0 10.0 0.00 0.33 0.33 86 1009.2
20260506193541 65 218 5.0 9.0 0.00 0.33 0.33 86 1009.1
20260506193038 65 194 6.0 11.0 0.00 0.33 0.33 86 1009.1
20260506192535 65 192 4.0 9.0 0.00 0.33 0.33 87 1009.2
20260506192031 65 210 4.0 10.0 0.00 0.33 0.33 87 1009.1
20260506191527 65 218 9.0 13.0 0.00 0.33 0.33 86 1009.2
20260506191024 65 230 3.0 9.0 0.00 0.33 0.33 87 1009.2
20260506190521 64 224 7.0 13.0 0.00 0.33 0.33 87 1009.1
20260506190019 65 188 8.0 11.0 0.00 0.33 0.33 87 1009.2
20260506185515 65 208 7.0 12.0 0.00 0.33 0.33 87 1009.2
20260506185011 65 200 9.0 11.0 0.00 0.33 0.33 88 1009.2
20260506184509 64 191 4.0 12.0 0.00 0.33 0.33 87 1009.1
20260506184006 65 223 8.0 11.0 0.00 0.33 0.33 88 1009.2
20260506183501 64 207 8.0 15.0 0.00 0.33 0.33 88 1009.3
20260506182959 64 205 7.0 11.0 0.00 0.33 0.33 88 1009.2
20260506182455 64 196 7.0 14.0 0.00 0.33 0.33 89 1009.1
20260506181953 64 209 7.0 12.0 0.00 0.33 0.33 90 1009.3
20260506181451 63 210 7.0 11.0 0.00 0.33 0.33 90 1009.3
20260506180947 64 215 6.0 10.0 0.00 0.33 0.33 92 1009.4
20260506180444 63 200 3.0 7.0 0.00 0.33 0.33 94 1009.6
20260506175940 62 186 4.0 7.0 0.00 0.33 0.33 94 1009.7
20260506175437 62 186 3.0 7.0 0.00 0.33 0.33 95 1009.6
20260506174934 62 211 4.0 5.0 0.00 0.33 0.33 95 1009.7
20260506174433 62 199 3.0 6.0 0.00 0.33 0.33 96 1009.6
20260506173929 61 203 3.0 6.0 0.00 0.33 0.33 96 1009.6
20260506173426 61 198 2.0 7.0 0.00 0.33 0.33 97 1009.7
20260506172923 60 208 3.0 9.0 0.00 0.33 0.33 97 1009.8
20260506172420 60 225 6.0 11.0 0.00 0.33 0.33 98 1009.8
20260506171916 60 197 5.0 6.0 0.00 0.33 0.33 98 1009.7
20260506171414 60 180 2.0 8.0 0.00 0.33 0.33 98 1009.8
20260506170912 60 208 2.0 5.0 0.02 0.33 0.33 98 1009.8
20260506170408 59 188 4.0 8.0 0.02 0.33 0.33 98 1009.8
20260506165907 59 184 4.0 7.0 0.02 0.32 0.32 98 1009.9
20260506165404 60 202 3.0 6.0 0.02 0.32 0.32 98 1009.9
20260506164900 59 201 4.0 6.0 0.00 0.32 0.32 98 1009.8
20260506164357 59 219 2.0 4.0 0.00 0.32 0.32 98 1009.9
20260506163855 59 183 2.0 6.0 0.00 0.32 0.32 98 1009.8
20260506163349 59 183 3.0 5.0 0.00 0.32 0.32 98 1009.8
20260506162845 59 166 4.0 4.0 0.00 0.32 0.32 97 1009.9
20260506162343 59 185 1.0 3.0 0.00 0.32 0.32 98 1010.1
20260506161840 60 124 0.0 1.0 0.00 0.32 0.32 98 1010.0
20260506161337 59 102 0.0 1.0 0.00 0.32 0.32 97 1010.1
20260506160830 59 31 0.0 2.0 0.00 0.32 0.32 97 1010.0
20260506160326 59 112 1.0 2.0 0.00 0.32 0.32 97 1009.9
20260506155825 59 204 3.0 4.0 0.00 0.32 0.32 97 1010.0
20260506155321 59 86 1.0 1.0 0.00 0.32 0.32 97 1010.0
20260506153433 59 53 0.0 2.0 0.00 0.32 0.32 97 1009.9
20260506152930 59 139 0.0 3.0 0.00 0.32 0.32 97 1009.8
20260506152427 59 197 1.0 4.0 0.02 0.32 0.32 97 1009.6
20260506151926 59 159 1.0 4.0 0.00 0.32 0.32 97 1009.7
20260506151422 59 119 1.0 2.0 0.00 0.32 0.32 98 1009.5
20260506150920 59 176 2.0 3.0 0.02 0.32 0.32 98 1009.6
20260506150416 59 154 1.0 3.0 0.02 0.32 0.32 98 1009.5
20260506145913 59 117 2.0 2.0 0.02 0.31 0.31 98 1009.5
20260506145409 59 96 2.0 2.0 0.05 0.31 0.31 98 1009.7
20260506144907 59 180 3.0 3.0 0.05 0.31 0.31 98 1009.6
20260506144403 59 139 2.0 2.0 0.02 0.30 0.30 98 1009.9
20260506143902 59 196 3.0 3.0 0.05 0.30 0.30 97 1010.0
20260506143358 59 211 3.0 4.0 0.05 0.29 0.29 97 1010.0
20260506142856 59 193 4.0 4.0 0.05 0.29 0.29 98 1009.8
20260506142354 59 153 2.0 3.0 0.00 0.28 0.28 98 1009.9
20260506141852 59 230 3.0 3.0 0.02 0.28 0.28 98 1009.8
20260506141350 59 169 3.0 4.0 0.05 0.28 0.28 97 1009.9
20260506140848 59 187 3.0 4.0 0.07 0.28 0.28 98 1009.8
20260506140344 59 239 2.0 3.0 0.09 0.28 0.28 98 1009.8
20260506135841 59 198 2.0 3.0 0.12 0.27 0.27 98 1009.8
20260506135338 58 176 2.0 3.0 0.17 0.26 0.26 98 1009.7
20260506134834 58 104 2.0 3.0 0.14 0.25 0.25 98 1009.9
20260506134331 58 245 0.0 2.0 0.05 0.23 0.23 98 1009.7
20260506133828 58 110 2.0 2.0 0.07 0.22 0.22 98 1009.6
20260506133325 58 61 2.0 2.0 0.05 0.22 0.22 99 1009.5
20260506132821 58 122 0.0 2.0 0.07 0.21 0.21 99 1009.5
20260506132319 58 112 2.0 2.0 0.07 0.21 0.21 99 1009.8
20260506131817 58 128 2.0 2.0 0.05 0.20 0.20 99 1009.9
20260506131312 58 86 2.0 2.0 0.05 0.20 0.20 99 1010.0
20260506130810 57 73 1.0 3.0 0.05 0.19 0.19 99 1010.0
20260506130306 57 132 1.0 2.0 0.07 0.19 0.19 99 1009.9
20260506125804 57 142 3.0 4.0 0.14 0.18 0.18 99 1009.8
20260506125305 57 166 2.0 3.0 0.17 0.17 0.17 99 1009.8
20260506124800 57 162 2.0 3.0 0.12 0.16 0.16 99 1010.1
20260506124257 57 140 2.0 3.0 0.12 0.15 0.15 99 1010.2
20260506123755 57 127 2.0 2.0 0.07 0.13 0.13 99 1010.4
20260506123253 57 125 2.0 3.0 0.09 0.13 0.13 99 1010.2
20260506122750 57 116 2.0 3.0 0.14 0.12 0.12 99 1010.6
20260506122247 57 97 0.0 3.0 0.14 0.11 0.11 99 1010.6
20260506121745 57 76 0.0 2.0 0.14 0.09 0.09 99 1010.8
20260506121241 57 121 1.0 2.0 0.12 0.08 0.08 99 1010.7
20260506120738 57 84 0.0 2.0 0.07 0.07 0.07 99 1010.7
20260506120236 57 174 1.0 2.0 0.05 0.06 0.06 99 1010.4
20260506115734 57 47 0.0 2.0 0.02 0.06 0.06 99 1010.3
20260506115232 57 141 2.0 2.0 0.05 0.05 0.05 99 1010.3
20260506114730 57 95 2.0 2.0 0.02 0.05 0.05 99 1010.2
20260506114227 57 55 0.0 2.0 0.02 0.04 0.04 99 1009.9
20260506113725 57 66 2.0 3.0 0.05 0.04 0.04 98 1010.0
20260506113223 57 37 0.0 2.0 0.02 0.04 0.04 98 1009.9
20260506112719 57 103 2.0 4.0 0.02 0.04 0.04 98 1009.9
20260506112216 57 114 0.0 2.0 0.05 0.03 0.03 98 1010.0
20260506111714 57 89 1.0 2.0 0.07 0.03 0.03 98 1010.0
20260506111212 57 93 1.0 2.0 0.05 0.02 0.02 98 1009.9
20260506110708 57 161 1.0 2.0 0.05 0.02 0.02 97 1010.1
20260506110206 57 53 3.0 3.0 0.02 0.01 0.01 97 1009.6
20260506105702 57 131 0.0 2.0 0.02 0.01 0.01 96 1009.8
20260506105159 57 132 2.0 3.0 0.00 0.00 0.00 97 1009.7
20260506104658 57 197 1.0 1.0 0.02 0.00 0.00 97 1009.7
20260506104155 57 110 2.0 3.0 0.02 0.00 0.00 96 1009.5
20260506103652 57 110 2.0 2.0 0.00 0.00 0.00 96 1009.4
20260506103149 57 114 0.0 2.0 0.00 0.00 0.00 96 1009.5
20260506102647 57 189 0.0 2.0 0.00 0.00 0.00 96 1009.5
20260506102144 57 139 0.0 2.0 0.00 0.00 0.00 95 1009.5
20260506101640 57 133 0.0 2.0 0.00 0.00 0.00 96 1009.5
20260506101137 57 179 2.0 3.0 0.00 0.00 0.00 96 1009.5
20260506100636 57 336 0.0 2.0 0.00 0.00 0.00 96 1009.2
20260506100134 57 14 1.0 2.0 0.00 0.00 0.00 96 1009.2
20260506095632 57 113 3.0 3.0 0.00 0.00 0.00 97 1009.3
20260506095128 56 48 1.0 2.0 0.00 0.00 0.00 97 1009.4
20260506094626 56 4 2.0 2.0 0.00 0.00 0.00 96 1009.3
20260506094123 57 337 3.0 3.0 0.00 0.00 0.00 95 1009.2
20260506093622 58 322 0.0 3.0 0.00 0.00 0.00 93 1009.2
20260506093119 58 133 2.0 3.0 0.00 0.00 0.00 92 1009.1
20260506092617 58 80 0.0 2.0 0.00 0.00 0.00 92 1009.2
20260506092113 57 91 2.0 2.0 0.00 0.00 0.00 92 1009.3
20260506091611 57 99 1.0 1.0 0.00 0.00 0.00 93 1009.3
20260506091108 57 50 1.0 2.0 0.00 0.00 0.00 93 1009.3
20260506090606 57 68 1.0 2.0 0.00 0.00 0.00 93 1009.3
20260506085600 57 358 1.0 2.0 0.00 0.00 0.00 93 1009.4
20260506085056 57 22 0.0 0.0 0.00 0.00 0.00 93 1009.4
20260506084553 57 31 0.0 2.0 0.00 0.00 0.00 92 1009.2
20260506084049 57 60 0.0 1.0 0.00 0.00 0.00 92 1009.3
20260506083546 57 55 0.0 2.0 0.00 0.00 0.00 91 1009.4
20260506083043 57 129 0.0 1.0 0.00 0.00 0.00 91 1009.3
20260506082540 58 15 1.0 2.0 0.00 0.00 0.00 91 1009.3
20260506082036 58 7 2.0 2.0 0.00 0.00 0.00 90 1009.4
20260506081534 58 142 0.0 1.0 0.00 0.00 0.00 91 1009.2
20260506081031 58 116 1.0 2.0 0.00 0.00 0.00 91 1009.5
20260506080529 57 142 2.0 2.0 0.00 0.00 0.00 91 1009.5
20260506073512 57 354 0.0 2.0 0.00 0.00 0.00 93 1009.4
20260506073009 57 6 0.0 1.0 0.00 0.00 0.00 93 1009.5
20260506072506 57 135 0.0 1.0 0.00 0.00 0.00 94 1009.3
20260506072004 57 102 0.0 1.0 0.00 0.00 0.00 94 1009.5
20260506071502 57 20 1.0 2.0 0.00 0.00 0.00 94 1009.4
20260506070959 57 57 0.0 2.0 0.00 0.00 0.00 94 1009.4
20260506070456 57 131 2.0 2.0 0.00 0.00 0.00 94 1009.4
20260506062433 57 119 2.0 3.0 0.00 0.00 0.00 93 1010.0
20260506061929 57 321 0.0 1.0 0.00 0.00 0.00 94 1009.9
20260506061426 56 300 2.0 3.0 0.00 0.00 0.00 94 1009.9